Weather History for Burlington Piers, ON

Change the Weather History Date:

Sunday, November 11, 2012

  Actual Average Record
Temperature  
Mean Temperature 55 °F -  
Max Temperature 64 °F - - ()
Min Temperature 46 °F - - ()
Degree Days  
Heating Degree Days 10    
Growing Degree Days 5 (Base 50)    
Moisture  
Dew Point 42 °F    
Average Humidity 63    
Maximum Humidity 92    
Minimum Humidity 35    
Precipitation  
Precipitation 0.00 in - - ()
Sea Level Pressure  
Sea Level Pressure 30.16 in    
Wind  
Wind Speed 6 mph ()    
Max Wind Speed 15 mph    
Max Gust Speed 21 mph    
T = Trace of Precipitation, MM = Missing Value Source: Averaged Metar Reports

Daily Weather History Graph

Daily Weather History Graph

Search for Another Location

Airport:

Trip Planner

Search our weather history database for the weather conditions in past years. The results will help you decide how hot, cold, wet, or windy it might be!

Date:

Astronomy

Nov. 11, 2012 Rise Set
Actual Time 7:07 AM EST 4:58 PM EST
Civil Twilight 6:37 AM EST 5:28 PM EST
Nautical Twilight 6:03 AM EST 6:02 PM EST
Astronomical Twilight 5:29 AM EST 6:36 PM EST
Moon 4:16 AM EST (11/11) 3:23 PM EST (11/11)
Length of Visible Light 10h 51m
Length of Day
9h 50m
Waning Crescent, 7% of the Moon is Illuminated
Nov 11
Waning Crescent
Nov 13
New
Nov 20
First Quarter
Nov 28
Full
Dec 6
Last Quarter

Hourly Weather History & Observations

Time (EST) Temp. Dew Point Humidity Pressure Visibility Wind Dir Wind Speed Gust Speed Precip Events Conditions
12:00 AM 47.7 °F 44.8 °F 90% 30.15 in - NNW 6.9 mph - N/A   Unknown
1:00 AM 47 °F 45 °F 90% 30.15 in - North 8.1 mph - -  
1:00 AM 47.3 °F 45.0 °F 92% 30.15 in - North 8.1 mph - N/A   Unknown
2:00 AM 47.1 °F 44.8 °F 92% 30.15 in - North 3.5 mph - N/A   Unknown
3:00 AM 46.6 °F 44.4 °F 92% 30.14 in - West 3.5 mph - N/A   Unknown
4:00 AM 47.1 °F 45.0 °F 92% 30.15 in - North 9.2 mph - N/A   Unknown
5:00 AM 47.7 °F 45.1 °F 91% 30.16 in - North 6.9 mph - N/A   Unknown
6:00 AM 47.3 °F 44.4 °F 90% 30.18 in - NNW 3.5 mph - N/A   Unknown
7:00 AM 48 °F 45 °F 84% 30.19 in - South 1.2 mph - -  
7:00 AM 47.7 °F 44.6 °F 89% 30.19 in - South 1.2 mph - N/A   Unknown
8:00 AM 47.7 °F 44.4 °F 89% 30.20 in - WNW 2.3 mph - N/A   Unknown
9:00 AM 57.4 °F 41.5 °F 56% 30.21 in - SW 5.8 mph - N/A   Unknown
10:00 AM 62.1 °F 40.6 °F 45% 30.19 in - South 11.5 mph - N/A   Unknown
11:00 AM 63.3 °F 41.0 °F 44% 30.19 in - South 12.7 mph - N/A   Unknown
12:00 PM 63.5 °F 41.0 °F 44% 30.18 in - South 12.7 mph 19.6 mph N/A   Unknown
1:00 PM 63.7 °F 41.5 °F 44% 30.16 in - South 11.5 mph - N/A   Unknown
2:00 PM 64.0 °F 41.0 °F 43% 30.16 in - South 10.4 mph - N/A   Unknown
3:00 PM 64.6 °F 38.5 °F 38% 30.17 in - South 15.0 mph 20.7 mph N/A   Unknown
4:00 PM 64.4 °F 39.0 °F 39% 30.16 in - SSW 10.4 mph - N/A   Unknown
5:00 PM 63.9 °F 39.0 °F 40% 30.15 in - SSW 8.1 mph - N/A   Unknown
6:00 PM 61.3 °F 39.7 °F 45% 30.15 in - SW 1.2 mph - N/A   Unknown
7:00 PM 60 °F 40 °F 35% 30.14 in - WSW 1.2 mph - -  
7:00 PM 59.5 °F 39.7 °F 48% 30.14 in - WSW 1.2 mph - N/A   Unknown
8:00 PM 60.8 °F 39.2 °F 45% 30.13 in - SW 2.3 mph - N/A   Unknown
9:00 PM 60.8 °F 38.5 °F 44% 30.12 in - SSE 6.9 mph - N/A   Unknown
10:00 PM 62.2 °F 37.4 °F 40% 30.11 in - South 8.1 mph - N/A   Unknown